Regional Weather Roundup
Issued by NWS Tiyan, Guam

Home | Current Version | Previous Version | Text Only | Print | Product List | Glossary On
Versions: 1 2 3 4 5 6 7 8 9 10 11 12 13 14 15 16 17 18 19 20 21 22 23 24 25 26 27 28 29 30 31 32 33 34 35 36 37 38
000
ASGM40 PGUM 260122
RWRGUM

CITY           SKY/WX    TMP DP  RH WIND       PRES   REMARKS
GUAM AIRPORT   MOSUNNY   84  75  74 E17G29    29.91F HX  92
ANDERSEN AFB   MOSUNNY   82  75  78 E16       29.92F
ROTA AIRPORT   MOSUNNY   82  73  74 E18G25    29.93F
TINIAN AP      MOSUNNY   82  73  74 NE21      29.92F
SAIPAN AP      MOSUNNY   84  73  70 NE18      29.93F HX  91

$$




USA.gov is the U.S. government's official web portal to all federal, state and local government web resources and services.